Wind_Speed
16 16 17 19 21 23 24 25 27 29 31 33 34 35 37 38 38 39 47 46 50 55 56 53 50 48 48 47 45 47 51 51 48 48 47 47 45 43 45 47 45 41 40 42 39
17 18 19 20 22 23 25 26 26 27 28 29 31 33 37 39 40 39 41 45 48 52 54 60 59 54 51 50 52 50 55 49 44 46 46 43 48 48 50 47 46 43 44 43 47
17 18 19 20 22 24 25 26 28 29 31 31 31 32 34 35 38 41 43 44 46 47 50 55 59 63 61 57 55 54 59 49 47 49 48 52 52 53 53 50 47 46 48 48 49
17 18 19 21 22 24 25 26 28 29 30 30 32 34 36 38 39 39 40 41 43 47 50 51 55 61 66 65 60 59 57 53 50 54 53 54 55 55 53 49 46 44 50 46 43
19 21 21 21 22 23 24 25 27 28 30 30 32 34 36 39 38 39 41 43 44 45 47 50 54 57 59 64 70 67 62 60 57 60 57 55 56 53 54 55 50 49 49 45 41
18 16 17 18 19 21 23 25 26 27 29 31 32 35 37 38 40 39 41 43 46 47 49 51 53 56 60 59 64 63 62 69 68 66 65 63 60 61 56 55 57 55 53 48 46
20 20 22 23 24 25 26 26 28 29 31 33 35 37 38 40 42 43 46 46 46 47 49 52 56 57 58 60 61 63 71 74 68 73 69 67 70 70 62 58 55 52 50 48 49
21 22 23 24 25 26 28 30 32 33 34 36 38 40 42 44 46 47 48 50 53 53 51 56 58 59 61 61 62 64 67 69 66 66 72 74 74 64 67 64 61 57 53 54 53
21 22 24 26 27 29 31 32 33 34 35 38 40 42 44 45 47 50 54 57 59 61 59 58 61 61 62 63 67 67 65 66 63 68 70 76 72 70 67 66 62 58 57 56 55
23 24 24 26 27 28 30 32 34 35 37 39 41 44 47 50 53 54 57 59 62 64 67 70 66 63 64 67 66 64 68 68 68 66 67 66 65 73 71 68 67 65 60 55 51
26 26 26 28 28 29 29 30 33 36 39 40 44 47 50 51 54 57 62 66 70 71 72 75 75 72 68 68 66 70 69 70 69 66 66 63 62 59 67 64 60 59 55 51 46
24 25 25 26 26 27 28 30 32 34 37 41 44 47 51 54 56 61 64 65 65 66 71 74 74 75 75 69 71 72 74 71 68 67 66 64 61 59 60 56 53 54 50 46 42
27 27 27 28 28 30 31 34 36 39 40 42 46 49 53 54 58 57 51 45 37 30 33 43 60 68 74 73 73 76 76 73 70 67 66 64 65 60 55 56 52 49 45 43 40
29 29 30 30 31 32 34 36 38 41 42 44 46 50 51 52 48 44 37 33 25 28 31 31 30 45 57 69 72 78 77 75 73 71 66 62 69 62 51 50 48 45 43 39 38
31 32 33 34 34 34 36 38 40 41 45 43 47 48 50 48 45 31 32 25 25 27 27 22 19 24 36 48 63 73 77 76 75 73 68 62 66 51 47 46 42 35 33 36 37
31 34 35 36 35 35 37 39 40 41 42 43 45 47 44 38 34 33 33 22 22 26 28 18 26 23 25 33 41 58 71 72 74 73 73 62 62 47 40 37 36 38 37 37 37
33 36 37 37 37 36 37 38 39 40 42 43 44 42 37 37 28 26 23 21 21 16 16 12 21 27 26 27 33 46 55 68 69 73 66 62 61 38 32 38 37 39 37 37 39
35 37 39 40 39 38 38 39 38 39 38 40 43 36 32 34 24 21 22 19 18 18 13 16 12 17 24 27 21 30 45 56 59 66 62 63 55 38 30 15 30 39 34 42 38
36 38 39 40 41 40 39 40 39 38 38 38 38 31 24 26 25 18 19 17 15 13 13 15 8 12 18 24 20 23 37 44 46 59 61 61 46 42 40 30 15 26 32 34 31
38 38 38 39 39 39 39 40 40 39 37 37 39 32 26 23 20 18 18 16 11 10 9 10 9 3 13 17 23 21 27 36 44 50 59 52 47 47 45 38 41 38 23 15 22
40 41 38 38 38 38 38 37 36 38 36 36 37 30 26 22 19 16 15 14 14 10 9 8 6 7 7 15 21 26 25 34 40 47 52 54 48 49 47 40 39 26 23 20 22
41 41 40 39 37 38 38 38 35 35 35 35 35 26 23 18 17 15 14 13 12 13 13 10 9 8 8 14 17 25 22 26 41 43 51 53 50 51 46 41 27 41 25 20 22
38 41 40 39 39 39 38 39 36 33 34 33 32 23 18 15 17 14 12 16 12 13 15 15 13 12 14 14 15 26 24 21 36 47 52 52 46 46 43 45 38 31 28 28 23
35 40 40 38 40 41 39 38 35 32 32 31 29 21 19 17 20 19 15 19 16 15 15 19 17 17 16 18 18 19 23 31 32 47 51 54 39 27 31 37 37 33 33 31 26
33 36 40 38 37 40 39 39 36 34 32 30 25 17 17 18 17 19 22 21 18 15 19 21 21 21 20 17 20 19 20 25 36 41 53 55 38 40 36 38 35 36 36 35 28
32 33 37 38 35 37 37 37 36 33 37 30 18 11 17 21 24 24 28 25 25 17 18 17 21 21 21 16 18 18 19 25 28 38 52 56 48 45 43 43 43 42 42 40 33
29 30 34 38 33 34 35 35 35 35 33 27 9 8 15 19 21 25 29 20 17 14 16 13 11 14 18 17 20 16 7 22 29 36 49 60 56 46 47 45 46 48 45 42 36
Wind_Direction
291 288 283 278 273 269 267 263 262 263 263 261 258 258 258 256 255 254 246 245 248 240 238 239 238 233 235 238 237 234 232 228 227 222 219 219 225 233 239 242 244 245 251 255 263
280 278 276 274 273 273 272 270 270 268 265 264 263 263 262 260 259 253 247 246 248 250 247 243 241 240 235 234 238 236 236 232 232 231 229 224 223 236 236 240 244 242 246 250 266
274 272 272 272 273 273 271 268 266 266 266 265 264 261 259 258 258 258 257 253 250 249 248 245 242 245 242 237 233 236 235 236 231 233 227 227 225 228 232 237 240 245 249 254 257
269 270 270 271 272 274 275 276 276 274 271 269 268 268 266 261 259 257 256 255 256 256 252 252 248 244 242 242 237 236 234 235 232 232 231 231 228 230 236 233 235 239 248 250 259
284 284 283 281 280 278 275 274 274 276 277 277 275 272 269 268 264 260 259 258 255 253 252 253 253 250 249 245 245 244 238 234 231 233 233 233 234 231 232 231 230 235 243 249 260
286 280 278 278 277 277 275 274 274 272 270 270 270 270 269 269 270 268 263 257 255 254 254 252 251 253 252 249 247 244 244 242 236 231 232 236 236 237 233 231 235 238 245 252 259
291 289 288 284 282 283 281 278 277 275 273 271 271 271 270 268 268 268 269 267 260 254 254 254 252 251 251 251 250 248 246 245 247 238 234 236 236 241 240 240 245 246 249 253 257
295 293 291 291 290 289 288 287 287 287 284 282 278 275 273 271 270 268 266 265 266 264 256 252 250 250 250 250 249 249 249 250 246 244 239 240 239 241 238 242 244 248 252 254 257
297 295 293 292 291 291 290 291 290 290 288 285 283 280 276 274 269 267 264 260 258 259 259 255 252 248 248 249 248 247 249 253 251 249 248 248 247 240 239 243 249 252 254 254 256
309 307 304 301 299 297 296 295 296 293 292 289 287 287 284 282 279 275 272 269 265 260 256 255 252 250 247 247 248 251 249 247 248 248 249 249 251 247 247 249 251 249 252 258 262
323 318 312 307 305 303 303 303 303 302 299 295 292 290 287 286 286 284 283 279 274 266 260 256 254 250 247 245 243 245 246 246 247 248 250 251 252 247 245 250 250 249 252 255 256
332 323 319 315 312 309 308 305 304 301 301 300 300 299 297 296 299 301 295 290 284 277 267 259 252 249 248 243 239 239 242 243 244 245 247 249 249 248 248 249 251 250 251 252 253
348 342 334 328 321 318 316 314 314 313 313 311 309 311 312 311 310 305 301 294 290 288 281 270 254 243 238 237 234 234 236 239 241 242 243 244 246 246 247 250 252 253 253 254 256
348 347 341 335 331 327 323 322 318 317 318 318 320 320 319 317 312 306 302 297 287 289 288 292 259 243 231 231 228 228 230 232 236 239 240 241 245 243 245 249 253 253 256 257 255
352 348 344 340 338 335 329 326 325 323 323 323 322 323 322 320 314 311 311 289 271 285 298 304 266 266 238 235 234 227 225 226 230 235 237 237 245 238 245 246 250 255 249 245 246
349 347 344 342 341 338 333 330 328 325 327 328 327 327 321 321 312 306 309 294 277 286 292 276 257 271 257 246 240 237 229 224 224 228 232 233 241 235 240 244 245 243 240 241 242
350 349 344 343 341 339 336 333 330 330 330 329 328 326 320 319 319 309 309 287 291 302 286 280 259 271 253 252 250 240 235 227 224 223 226 231 235 229 232 236 236 233 236 239 239
350 347 346 343 340 338 338 337 332 331 330 331 329 324 317 317 327 323 315 300 279 278 290 284 289 253 245 238 246 245 239 231 230 225 219 227 229 217 215 225 229 232 228 233 236
347 348 345 344 341 338 338 338 334 333 332 331 330 324 317 319 321 333 316 314 280 280 296 302 314 280 257 223 225 241 229 225 226 228 218 222 222 214 214 214 197 193 209 222 231
345 345 345 344 340 337 338 339 334 333 332 334 333 329 324 328 323 326 327 307 288 273 294 297 259 293 239 224 223 225 221 211 217 217 220 214 214 213 221 214 223 225 226 235 203
340 343 344 343 340 339 339 339 335 334 333 335 336 334 329 324 324 328 322 309 288 275 278 279 270 270 220 230 218 223 225 214 210 208 210 210 210 214 217 209 215 212 210 203 198
335 338 341 343 341 339 340 342 339 335 334 338 340 338 340 331 326 317 315 319 294 275 276 262 247 229 244 246 238 236 223 213 209 200 204 205 208 213 214 212 206 219 190 197 200
329 334 338 343 340 341 343 343 341 340 336 338 338 344 345 338 334 339 316 305 297 266 266 265 248 234 235 237 236 237 238 222 214 203 195 198 195 206 213 215 214 206 204 213 202
328 331 336 345 341 341 343 344 342 340 338 337 337 339 341 345 333 339 322 307 300 274 269 265 259 244 235 239 243 243 229 222 222 208 199 194 186 184 199 205 209 200 188 198 200
326 331 334 345 341 338 343 344 344 342 340 339 333 336 341 349 349 334 330 319 294 301 266 256 260 249 244 246 237 241 245 228 226 217 203 197 168 171 176 193 200 194 189 199 202
324 332 332 341 341 339 342 345 345 345 341 342 327 330 349 351 349 351 340 327 323 299 314 279 265 246 239 253 248 241 243 245 233 226 208 198 165 160 168 172 175 178 185 196 196
323 330 332 335 341 340 342 346 346 346 347 349 3 3 352 353 353 356 347 345 335 318 274 291 276 253 238 263 258 237 257 246 234 219 214 197 170 163 167 170 170 170 180 189 189
Height
5769 5769 5769 5769 5769 5770 5770 5770 5771 5772 5773 5774 5776 5777 5778 5780 5782 5783 5786 5790 5791 5794 5797 5798 5803 5806 5808 5813 5817 5820 5821 5828 5838 5839 5844 5843 5846 5848 5849 5853 5857 5861 5862 5864 5866
5765 5765 5765 5765 5765 5764 5764 5764 5764 5766 5767 5769 5770 5770 5771 5772 5774 5774 5777 5779 5781 5784 5786 5790 5793 5795 5800 5803 5806 5809 5812 5822 5833 5833 5834 5836 5839 5842 5845 5847 5851 5855 5854 5858 5861
5760 5760 5760 5760 5759 5759 5759 5759 5760 5760 5760 5762 5763 5763 5763 5764 5764 5767 5770 5771 5773 5774 5776 5779 5783 5785 5789 5794 5795 5799 5803 5818 5824 5824 5823 5827 5831 5834 5836 5839 5844 5847 5848 5854 5855
5757 5756 5755 5755 5754 5753 5753 5752 5751 5752 5753 5753 5754 5752 5753 5754 5757 5759 5761 5761 5763 5765 5767 5768 5770 5772 5776 5781 5789 5789 5795 5803 5814 5811 5811 5814 5821 5825 5827 5834 5835 5837 5840 5845 5847
5752 5751 5751 5750 5749 5749 5748 5747 5746 5745 5745 5745 5745 5744 5744 5743 5746 5749 5751 5752 5753 5754 5756 5758 5759 5761 5764 5770 5772 5777 5787 5788 5796 5797 5801 5801 5809 5815 5817 5824 5828 5829 5832 5837 5841
5748 5747 5747 5746 5745 5744 5743 5742 5741 5740 5739 5738 5738 5736 5736 5736 5735 5736 5737 5739 5742 5743 5744 5746 5747 5748 5752 5755 5759 5770 5770 5773 5779 5784 5789 5790 5798 5800 5812 5815 5819 5823 5827 5832 5834
5745 5743 5741 5740 5739 5738 5736 5735 5733 5733 5731 5730 5729 5727 5726 5727 5725 5726 5725 5726 5728 5730 5732 5733 5734 5737 5740 5743 5747 5751 5753 5756 5765 5774 5778 5781 5781 5789 5803 5805 5808 5814 5820 5824 5825
5740 5738 5736 5734 5732 5730 5728 5726 5724 5722 5720 5719 5718 5716 5715 5715 5714 5714 5714 5713 5712 5713 5719 5719 5719 5723 5726 5729 5732 5736 5737 5739 5754 5758 5767 5764 5769 5789 5789 5792 5798 5804 5808 5810 5814
5735 5733 5730 5727 5725 5723 5720 5717 5715 5712 5710 5707 5706 5704 5702 5702 5701 5699 5698 5698 5698 5698 5699 5701 5703 5708 5710 5714 5715 5718 5727 5732 5741 5742 5749 5748 5760 5773 5776 5780 5787 5792 5794 5798 5802
5729 5727 5724 5721 5718 5715 5712 5709 5705 5702 5700 5698 5695 5693 5689 5685 5684 5682 5680 5680 5680 5681 5681 5679 5682 5689 5696 5694 5702 5712 5710 5715 5719 5728 5730 5737 5744 5755 5762 5769 5775 5779 5784 5789 5793
5724 5721 5718 5714 5711 5708 5706 5703 5699 5694 5690 5687 5683 5678 5673 5671 5666 5662 5658 5657 5653 5657 5657 5656 5660 5674 5675 5678 5689 5686 5692 5698 5706 5712 5717 5726 5731 5740 5746 5753 5761 5767 5775 5779 5782
5720 5716 5712 5709 5705 5702 5699 5695 5691 5687 5683 5676 5670 5664 5657 5652 5649 5640 5636 5632 5626 5623 5625 5627 5641 5644 5650 5656 5664 5669 5673 5683 5690 5698 5706 5710 5717 5726 5734 5744 5750 5755 5762 5768 5772
5716 5711 5707 5703 5699 5694 5689 5685 5679 5673 5668 5662 5655 5650 5642 5637 5630 5624 5617 5611 5609 5607 5603 5601 5614 5614 5621 5630 5640 5647 5656 5667 5677 5684 5691 5699 5702 5712 5724 5731 5739 5745 5752 5757 5762
5712 5707 5702 5697 5693 5687 5681 5675 5669 5663 5657 5651 5645 5637 5630 5622 5618 5609 5605 5603 5601 5599 5594 5592 5594 5596 5597 5604 5616 5624 5637 5650 5661 5667 5678 5688 5684 5700 5718 5723 5730 5736 5742 5748 5751
5708 5703 5697 5691 5686 5680 5675 5668 5661 5656 5649 5644 5635 5628 5618 5611 5603 5602 5597 5594 5593 5592 5589 5588 5585 5584 5585 5590 5596 5605 5617 5633 5644 5653 5663 5676 5673 5703 5711 5716 5722 5729 5733 5735 5738
5705 5699 5693 5686 5681 5675 5668 5662 5656 5651 5642 5635 5627 5619 5611 5604 5598 5593 5589 5588 5586 5584 5582 5580 5579 5580 5581 5583 5586 5595 5604 5616 5627 5639 5645 5667 5669 5695 5704 5711 5713 5716 5721 5724 5728
5701 5695 5688 5682 5676 5669 5663 5656 5650 5642 5636 5628 5619 5611 5603 5597 5593 5587 5584 5582 5581 5579 5576 5576 5574 5574 5576 5576 5579 5585 5590 5605 5613 5620 5643 5655 5660 5692 5697 5697 5701 5705 5711 5715 5718
5698 5691 5683 5677 5670 5664 5658 5651 5643 5637 5630 5622 5612 5604 5597 5590 5589 5583 5579 5576 5576 5574 5573 5572 5569 5568 5569 5571 5576 5579 5585 5598 5604 5612 5641 5641 5656 5680 5689 5689 5690 5697 5703 5704 5709
5693 5687 5680 5672 5665 5658 5652 5645 5637 5630 5623 5615 5607 5599 5594 5587 5581 5579 5576 5572 5571 5571 5570 5568 5566 5564 5562 5566 5572 5574 5576 5591 5598 5611 5625 5633 5658 5670 5678 5683 5687 5688 5693 5699 5706
5689 5682 5675 5668 5660 5653 5647 5639 5630 5623 5617 5608 5599 5593 5587 5584 5579 5575 5572 5569 5568 5568 5566 5566 5564 5562 5561 5563 5568 5572 5575 5582 5587 5604 5617 5633 5646 5657 5664 5675 5680 5684 5689 5696 5700
5683 5677 5671 5664 5656 5649 5641 5634 5626 5617 5611 5603 5594 5587 5582 5579 5575 5572 5570 5567 5564 5564 5564 5563 5563 5563 5562 5562 5564 5568 5570 5576 5583 5596 5608 5624 5636 5644 5655 5665 5671 5679 5686 5692 5695
5677 5672 5666 5658 5652 5644 5636 5629 5621 5612 5604 5597 5590 5584 5579 5574 5572 5569 5566 5563 5562 5561 5561 5560 5560 5560 5561 5560 5562 5565 5567 5572 5578 5591 5599 5612 5627 5633 5644 5657 5664 5672 5682 5686 5691
5673 5666 5660 5654 5646 5638 5631 5623 5615 5608 5600 5594 5586 5581 5576 5572 5569 5566 5563 5560 5558 5557 5557 5557 5556 5557 5559 5561 5560 5560 5563 5568 5573 5580 5588 5601 5617 5625 5635 5646 5655 5667 5675 5681 5688
5668 5660 5654 5648 5640 5633 5626 5619 5611 5603 5596 5590 5584 5578 5574 5571 5567 5562 5560 5557 5554 5553 5552 5551 5552 5552 5554 5555 5556 5557 5560 5564 5566 5573 5583 5594 5608 5619 5628 5639 5648 5660 5669 5676 5683
5662 5655 5647 5643 5637 5628 5622 5614 5607 5599 5593 5585 5581 5576 5573 5569 5566 5561 5556 5552 5549 5547 5545 5543 5544 5547 5548 5550 5550 5553 5555 5557 5559 5567 5573 5587 5604 5613 5621 5631 5642 5654 5664 5670 5678
5655 5650 5643 5638 5633 5625 5618 5610 5602 5597 5588 5582 5576 5574 5571 5568 5562 5558 5553 5548 5545 5543 5539 5538 5537 5539 5543 5545 5545 5547 5550 5552 5555 5560 5566 5578 5599 5610 5617 5626 5636 5647 5657 5666 5673
5649 5645 5639 5633 5629 5622 5615 5607 5599 5593 5587 5578 5575 5574 5572 5568 5563 5558 5552 5546 5541 5537 5535 5534 5534 5535 5538 5540 5540 5543 5546 5545 5548 5554 5561 5571 5595 5602 5613 5622 5632 5642 5653 5661 5669